When you browse on this site, cookies collect data to enhance your experience and personalize the content and advertising you see.
Visit our Privacy Policy to learn more. By continuing to use the site, you agree to this use of cookies and data.
  • In United Kingdom
  • List of Countries
  • For 7 days
  • Water Temperature
  • Satellite Maps
  • Weather Map
  • Weather Widgets
  • user-avatar
    Login

    Hourly Weather Masvingo

    Today, 21 May, Tuesday

    Time Temperature Precipitation Wind Pressure Humidity
    00:00 +15°C° 0 mm 1 mps 673 mmHg 52%
    01:00 +14°C° 0 mm 1 mps 672 mmHg 53%
    02:00 +14°C° 0 mm 1 mps 672 mmHg 54%
    03:00 +13°C° 0 mm 1 mps 672 mmHg 56%
    04:00 +13°C° 0 mm 1 mps 672 mmHg 57%
    05:00 +13°C° 0 mm 1 mps 672 mmHg 59%
    06:00 +14°C° 0 mm 1 mps 673 mmHg 55%
    07:00 +16°C° 0 mm 1 mps 673 mmHg 51%
    08:00 +16°C° 0 mm 0 mps 674 mmHg 47%
    09:00 +19°C° 0 mm 0 mps 674 mmHg 39%
    10:00 +22°C° 0 mm 0 mps 675 mmHg 32%
    11:00 +25°C° 0 mm 0 mps 676 mmHg 24%
    12:00 +27°C° 0 mm 1 mps 675 mmHg 22%
    13:00 +28°C° 0 mm 1 mps 675 mmHg 19%
    14:00 +28°C° 0 mm 2 mps 674 mmHg 17%
    15:00 +27°C° 0 mm 2 mps 674 mmHg 20%
    16:00 +25°C° 0 mm 2 mps 673 mmHg 24%
    17:00 +24°C° 0 mm 2 mps 673 mmHg 27%
    18:00 +21°C° 0 mm 2 mps 673 mmHg 31%
    19:00 +19°C° 0 mm 2 mps 673 mmHg 34%
    20:00 +17°C° 0 mm 2 mps 673 mmHg 37%
    21:00 +17°C° 0 mm 2 mps 674 mmHg 39%
    22:00 +16°C° 0 mm 2 mps 674 mmHg 40%
    23:00 +16°C° 0 mm 2 mps 674 mmHg 41%

    Tomorrow, 22 May, Wednesday

    Time Temperature Precipitation Wind Pressure Humidity
    00:00 +15°C° 0 mm 2 mps 674 mmHg 44%
    01:00 +15°C° 0 mm 2 mps 674 mmHg 47%
    02:00 +14°C° 0 mm 2 mps 674 mmHg 49%
    03:00 +14°C° 0 mm 1 mps 674 mmHg 53%
    04:00 +13°C° 0 mm 1 mps 674 mmHg 57%
    05:00 +13°C° 0 mm 1 mps 673 mmHg 61%
    06:00 +14°C° 0 mm 1 mps 674 mmHg 59%
    07:00 +15°C° 0 mm 1 mps 675 mmHg 57%
    08:00 +16°C° 0 mm 1 mps 676 mmHg 55%
    09:00 +18°C° 0 mm 2 mps 676 mmHg 49%
    10:00 +21°C° 0 mm 2 mps 677 mmHg 44%
    11:00 +24°C° 0 mm 3 mps 677 mmHg 38%
    12:00 +25°C° 0 mm 3 mps 676 mmHg 36%
    13:00 +25°C° 0 mm 3 mps 676 mmHg 34%
    14:00 +26°C° 0 mm 4 mps 675 mmHg 32%
    15:00 +25°C° 0 mm 4 mps 675 mmHg 37%
    16:00 +22°C° 0 mm 3 mps 674 mmHg 42%
    17:00 +21°C° 0 mm 3 mps 674 mmHg 47%
    18:00 +19°C° 0 mm 3 mps 674 mmHg 57%
    19:00 +18°C° 0 mm 2 mps 674 mmHg 67%
    20:00 +16°C° 0 mm 2 mps 675 mmHg 77%
    21:00 +15°C° 0 mm 2 mps 675 mmHg 82%
    22:00 +15°C° 0 mm 2 mps 675 mmHg 87%
    23:00 +14°C° 0 mm 1 mps 675 mmHg 92%

    Day after tomorrow, 23 May, Thursday

    Time Temperature Precipitation Wind Pressure Humidity
    00:00 +14°C° 0 mm 1 mps 674 mmHg 93%
    01:00 +13°C° 0 mm 1 mps 674 mmHg 93%
    02:00 +13°C° 0 mm 1 mps 674 mmHg 94%
    03:00 +12°C° 0 mm 0 mps 674 mmHg 94%
    04:00 +11°C° 0 mm 0 mps 673 mmHg 94%
    05:00 +11°C° 0 mm 0 mps 673 mmHg 94%
    06:00 +13°C° 0 mm 0 mps 674 mmHg 88%
    07:00 +14°C° 0 mm 0 mps 675 mmHg 82%
    08:00 +15°C° 0 mm 0 mps 676 mmHg 76%
    09:00 +20°C° 0 mm 1 mps 676 mmHg 63%
    10:00 +21°C° 0 mm 2 mps 676 mmHg 51%
    11:00 +24°C° 0 mm 3 mps 677 mmHg 39%
    12:00 +25°C° 0 mm 3 mps 676 mmHg 36%
    13:00 +26°C° 0 mm 4 mps 675 mmHg 33%
    14:00 +26°C° 0 mm 4 mps 675 mmHg 30%
    15:00 +25°C° 0 mm 4 mps 675 mmHg 35%
    16:00 +24°C° 0 mm 3 mps 674 mmHg 39%
    17:00 +22°C° 0 mm 3 mps 674 mmHg 44%
    18:00 +20°C° 0 mm 3 mps 674 mmHg 50%
    19:00 +18°C° 0 mm 2 mps 674 mmHg 57%
    20:00 +17°C° 0 mm 2 mps 675 mmHg 63%
    21:00 +16°C° 0 mm 2 mps 675 mmHg 65%
    22:00 +16°C° 0 mm 2 mps 675 mmHg 68%
    23:00 +15°C° 0 mm 2 mps 675 mmHg 70%

    24 May, Friday

    Time Temperature Precipitation Wind Pressure Humidity
    00:00 +15°C° 0 mm 2 mps 675 mmHg 72%
    01:00 +14°C° 0 mm 1 mps 674 mmHg 74%
    02:00 +14°C° 0 mm 1 mps 674 mmHg 76%
    03:00 +13°C° 0 mm 1 mps 674 mmHg 77%
    04:00 +13°C° 0 mm 1 mps 674 mmHg 78%
    05:00 +13°C° 0 mm 1 mps 674 mmHg 80%
    06:00 +14°C° 0 mm 1 mps 675 mmHg 74%
    07:00 +16°C° 0 mm 1 mps 676 mmHg 69%
    08:00 +18°C° 0 mm 1 mps 677 mmHg 63%
    09:00 +19°C° 0 mm 2 mps 677 mmHg 55%
    10:00 +21°C° 0 mm 3 mps 677 mmHg 48%
    11:00 +23°C° 0 mm 5 mps 677 mmHg 40%
    12:00 +25°C° 0 mm 5 mps 677 mmHg 40%
    13:00 +25°C° 0 mm 5 mps 676 mmHg 40%
    14:00 +26°C° 0 mm 5 mps 676 mmHg 39%
    15:00 +23°C° 0 mm 5 mps 676 mmHg 46%
    16:00 +22°C° 0 mm 5 mps 675 mmHg 52%
    17:00 +21°C° 0 mm 5 mps 675 mmHg 58%
    18:00 +19°C° 0 mm 4 mps 676 mmHg 65%
    19:00 +18°C° 0 mm 4 mps 676 mmHg 71%
    20:00 +17°C° 0 mm 4 mps 676 mmHg 78%
    21:00 +16°C° 0 mm 3 mps 676 mmHg 81%
    22:00 +14°C° 0 mm 3 mps 676 mmHg 84%
    23:00 +14°C° 0 mm 3 mps 676 mmHg 87%

    25 May, Saturday

    Time Temperature Precipitation Wind Pressure Humidity
    00:00 +14°C° 0 mm 2 mps 676 mmHg 89%
    01:00 +14°C° 0 mm 2 mps 675 mmHg 90%
    02:00 +13°C° 0 mm 2 mps 675 mmHg 92%
    03:00 +13°C° 0 mm 1 mps 675 mmHg 93%
    04:00 +13°C° 0 mm 1 mps 675 mmHg 94%
    05:00 +12°C° 0 mm 1 mps 675 mmHg 96%
    06:00 +14°C° 0 mm 1 mps 676 mmHg 91%
    07:00 +15°C° 0 mm 2 mps 677 mmHg 87%
    08:00 +16°C° 0 mm 2 mps 677 mmHg 83%
    09:00 +17°C° 0.1 mm 3 mps 677 mmHg 75%
    10:00 +19°C° 0.1 mm 3 mps 677 mmHg 68%
    11:00 +20°C° 0.1 mm 3 mps 677 mmHg 61%
    12:00 +20°C° 0 mm 3 mps 677 mmHg 59%
    13:00 +20°C° 0 mm 3 mps 676 mmHg 57%
    14:00 +21°C° 0 mm 3 mps 675 mmHg 55%
    15:00 +20°C° 0 mm 3 mps 675 mmHg 58%
    16:00 +20°C° 0 mm 3 mps 675 mmHg 60%
    17:00 +19°C° 0 mm 3 mps 675 mmHg 62%
    18:00 +18°C° 0 mm 2 mps 675 mmHg 69%
    19:00 +16°C° 0 mm 2 mps 675 mmHg 76%
    20:00 +15°C° 0 mm 1 mps 676 mmHg 82%
    21:00 +14°C° 0 mm 1 mps 675 mmHg 81%
    22:00 +14°C° 0 mm 1 mps 675 mmHg 80%
    23:00 +14°C° 0 mm 1 mps 675 mmHg 80%

    26 May, Sunday

    Time Temperature Precipitation Wind Pressure Humidity
    00:00 +13°C° 0 mm 1 mps 675 mmHg 78%
    01:00 +13°C° 0 mm 1 mps 675 mmHg 77%
    02:00 +12°C° 0 mm 1 mps 674 mmHg 75%
    03:00 +12°C° 0 mm 1 mps 674 mmHg 79%
    04:00 +11°C° 0 mm 1 mps 674 mmHg 83%
    05:00 +11°C° 0 mm 1 mps 674 mmHg 87%
    06:00 +13°C° 0 mm 1 mps 675 mmHg 84%
    07:00 +14°C° 0 mm 1 mps 675 mmHg 81%
    08:00 +15°C° 0 mm 1 mps 676 mmHg 78%
    09:00 +17°C° 0 mm 2 mps 676 mmHg 68%
    10:00 +19°C° 0 mm 3 mps 676 mmHg 59%
    11:00 +21°C° 0 mm 3 mps 676 mmHg 49%
    12:00 +22°C° 0 mm 3 mps 676 mmHg 47%
    13:00 +22°C° 0 mm 3 mps 675 mmHg 46%
    14:00 +24°C° 0 mm 3 mps 675 mmHg 44%
    15:00 +22°C° 0 mm 3 mps 674 mmHg 50%
    16:00 +21°C° 0 mm 3 mps 674 mmHg 55%
    17:00 +19°C° 0 mm 3 mps 674 mmHg 61%
    18:00 +18°C° 0 mm 3 mps 674 mmHg 71%
    19:00 +16°C° 0 mm 2 mps 674 mmHg 81%
    20:00 +14°C° 0 mm 2 mps 674 mmHg 90%
    21:00 +14°C° 0 mm 2 mps 674 mmHg 92%
    22:00 +14°C° 0 mm 1 mps 674 mmHg 93%
    23:00 +13°C° 0 mm 1 mps 674 mmHg 95%
    Show more